Starlink 4336

operational
NORAD ID: 53051 Int'l Des: 2022-077 Owner: SPXS Country: US Constellation: starlink
LEOCIRCULARRETROGRADESSO

Starlink 4336について

説明を読み込み中...

リアルタイム位置

3D地球を読み込み中...

次回通過

高度履歴

Altitude vs Time

uPlot chart will show altitude changes over time

軌道要素

1 53051U 22077J 25353.25265176 .00000443 00000-0 39051-4 0 9997
2 53051 97.6040 171.4548 0001658 85.5957 274.5457 15.01261916188846
Epoch: Dec 19, 2025 • Age: 5 hours

現在のステータス

高度 567.8 km
速度 7.58 km/s
衛星直下点 -9.40°S, 77.7°W
打ち上げ日 Jul 11, 2022
運用期間 3.4 years
タイプ internet

技術仕様

分類 Payload
質量 297.00 kg
乾燥質量 275.00 kg
総質量 297.00 kg
長さ 0.20 m
直径 2.80 m
スパン 9.00 m
形状 Box + pan
製造者 SPXS
バスタイプ Starlink
フェーズステータス In Orbit
所有者/国 SPXS/US

大規模コンステレーション

Loading constellations...